Location: Paddlesworth
(51.1000°N, 1.1333°E)
Time: 08:32:58
(UTC+00:00)

Cosmos 2074 Rocket - Pass Details

Date: 11 May 2021
Orbit: 967 x 986 km, 82.9° (Epoch: 20 June)

Event Time Altitude Azimuth Distance (km) Brightness Sun altitude
Rises 21:08:14 0° 350° (N) 3,707 8.2 -12.1°
Reaches altitude 10° 21:10:47 10° 352° (N) 2,755 7.3 -12.3°
Maximum altitude 21:17:07 76° 79° (E) 1,020 4.0 -12.9°
Enters shadow 21:22:15 16° 164° (SSE) 2,316 5.4 -13.4°
